Regional Weather Roundup
Issued by NWS

Home | Current Version | Previous Version | Graphics & Text | Print | Product List | Glossary On
Versions: 1 2 3 4 5 6 7 8 9 10 11 12 13 14 15 16 17 18 19 20 21 22 23 24 25 26 27 28 29 30 31 32 33 34 35 36 37 38 39 40 41 42 43 44 45 46 47 48 49 50
000
ASUS43 KFSD 211702
RWRSD

WEATHER ROUNDUP FOR SOUTH DAKOTA
NATIONAL WEATHER SERVICE SIOUX FALLS SD
1100 AM CST TUE FEB 21 2017

NOTE: "FAIR" INDICATES FEW OR NO CLOUDS BELOW 12,000 FEET WITH NO
SIGNIFICANT WEATHER AND/OR OBSTRUCTIONS TO VISIBILITY.


SDZ001>005-009-010-012>017-211800-
NORTHWEST AND NORTH CENTRAL SOUTH DAKOTA

CITY           SKY/WX    TMP DP  RH WIND       PRES   REMARKS
FAITH            N/A     56  38  50 SW6       29.73S
MOBRIDGE       MOSUNNY   50  34  54 CALM      29.69S
$$

SDZ012>016-024>037-041>051-057-063-072>074-211800-
SOUTHWEST AND SOUTH CENTRAL SOUTH DAKOTA

CITY           SKY/WX    TMP DP  RH WIND       PRES   REMARKS
RAPID CTY ARPT SUNNY     65  32  29 W20G29    29.75S
PIERRE         SUNNY     58  35  42 W10       29.74R
CUSTER         SUNNY     50  30  46 W22G36    29.87R
ELLSWORTH AFB  SUNNY     64  33  31 W16G28    29.75S
PHILIP         SUNNY     66  35  31 W16       29.73F
PINE RIDGE     SUNNY     63  34  33 W22G33    29.83R
SPEARFISH      FAIR      59  32  36 W18G29    29.76S
WINNER         FAIR      69  32  25 W15G25    29.77F
$$

SDZ004>011-016>023-039-040-211800-
NORTHEAST SOUTH DAKOTA

CITY           SKY/WX    TMP DP  RH WIND       PRES   REMARKS
ABERDEEN       MOSUNNY   45  35  68 S7        29.72S
WATERTOWN      CLOUDY    47  37  68 SW12      29.74S
BROOKINGS      MOSUNNY   51  36  56 SW14      29.76F
SISSETON         N/A     52  37  56 CALM      29.69S
$$

SDZ017-020-022-023-036>040-048>070-211800-
SOUTHEAST SOUTH DAKOTA

CITY           SKY/WX    TMP DP  RH WIND       PRES   REMARKS
SIOUX FALLS    PTSUNNY   52  37  56 SW10G17   29.81F
HURON          SUNNY     52  37  56 S7        29.75S
CHAMBERLAIN    SUNNY     61  35  38 W7        29.77S
MITCHELL       SUNNY     57  33  40 SW9       29.78F
YANKTON        SUNNY     59  30  33 SW14G22   29.81F
$$

ABBREVIATIONS USED IN REMARKS
   TC - TEMPERATURE IN CELSIUS
  WCI - WIND CHILL INDEX
   HX - HEAT INDEX
  VSB - VISIBILITY





USA.gov is the U.S. government's official web portal to all federal, state and local government web resources and services.